星链-34932 (STARLINK-34932)

基本信息
目录编号:
65179
目录名称:
STARLINK-34932
国际标识:
2025-175F
轨道中心:
EARTH
卫星名称:
星链-34932
卫星全名:
星链-34932 (STARLINK-34932)
卫星状态:
在轨 (已飞行124 天)
发射日期:
2025-08-14 UTC
国别 :
美国 (US)
星等 :
--
轨道信息
数据来源 国际轨道数据 AOE轨道数据
星历时间 2025-12-16T06:09:11+0800
7小时前
查看轨道信息
2025-12-10T04:00:00+0800
6天前
查看轨道信息
半长轴 6927.656km 6927.684km
偏心率 0.0002936 0.0002813
轨道倾角 97.604° 97.603°
近地点辐角 69.754° 71.088°
升交点赤经 220.056° 214.054°
平近点角 290.400° 61.592°
近地点 547.487km 547.6km
远地点 551.555km 551.498km
周期 95.640分钟 95.640分钟
每日圈数 15.056475 15.056384
详细信息
固有亮度:
5
最大亮度:
2.5
卫星平台:
Starlink V1.0
覆盖范围:
全球
运营商:
太空探索技术公司
运营商所在国:
美国
制造商(研发单位):
太空探索技术公司
制造商所在国:
美国
使用方式:
暂无
卫星简介
Starlink 计划是 SpaceX 推出的全球卫星互联网项目,通过发射低轨道卫星,为全球尤其是偏远地区提供高速、低延迟的互联网服务。自 2019 年起,Starlink 已部署数千颗卫星,旨在缩小全球数字鸿沟,推动互联网普及。该项目还为军事、航空等行业提供通信支持,带来广泛经济效益。
2D轨道图
3D轨道图
轨道高度分析图
轨道倾角分析图
轨道综合分析图
查看轨道综合分析图